Retour au catalogue

COSMOS 2251 DEB

LostLEO
NORAD 35992·DEBRIS·🇷🇺 Russia

Lancé Jun 16, 1993 depuis Plesetsk Cosmodrome

Loading…

Prochains Passages (prochaines 24 heures)

TLE

PériméSource: Space-Track

Époque: May 31, 2015, 01:31 UTC

1 35992U 93036AWJ 15151.06342420  .00001165  00000-0  20536-3 0  9995
2 35992  73.9533 292.9072 0090633 355.1963   4.8325 14.66171244307811

Suivez COSMOS 2251 DEB en temps réel avec AllMySat

Download on the App Store